Simultaneous Nadir Overpasses (SNOs) Predictions

Prediction of SNOs between GOES-16 and AQUA Satellite Orbit:

Table of predicted SNOs for the next 14.0 days since TLE Epoch: 1/28/2023
Index Date Time (GOES-16) GOES-16 Lat,Lon AQUA Lat,Lon Distance(km) Time Diff (sec)
1 01/28/2023 06:59:35 -0.06, -75.19 0.63, -78.41 366.40 80
2 01/30/2023 06:46:23 -0.05, -75.19 -0.07, -75.19 1.35 80
3 02/01/2023 06:30:30 -0.05, -75.20 -0.75, -71.97 367.94 80
4 02/01/2023 18:51:38 0.05, -75.20 -0.34, -77.09 214.19 80
5 02/03/2023 18:41:04 0.04, -75.22 0.33, -73.86 154.31 80
6 02/04/2023 07:02:04 -0.04, -75.23 0.73, -78.95 423.17 80
7 02/06/2023 06:48:49 -0.03, -75.25 0.07, -75.72 53.51 80
8 02/08/2023 06:32:54 -0.03, -75.28 -0.63, -72.49 317.18 80
9 02/08/2023 18:54:01 0.03, -75.29 -0.48, -77.61 264.21 80
10 02/10/2023 18:43:25 0.03, -75.32 0.21, -74.37 107.55 80
